EN

Hourly Weather La Azulita

Today, 23 July, Friday

Time Temperature Precipitation Wind Pressure Humidity
00:00 +19°C° 0.1 mm 2 mps 658 mmHg 76%
01:00 +19°C° 0 mm 2 mps 658 mmHg 75%
02:00 +19°C° 0 mm 2 mps 657 mmHg 76%
03:00 +19°C° 0 mm 2 mps 657 mmHg 76%
04:00 +18°C° 0 mm 2 mps 657 mmHg 76%
05:00 +19°C° 0 mm 2 mps 658 mmHg 73%
06:00 +21°C° 0 mm 1 mps 658 mmHg 71%
07:00 +22°C° 0 mm 1 mps 658 mmHg 68%
08:00 +24°C° 0 mm 1 mps 659 mmHg 64%
09:00 +25°C° 0 mm 2 mps 659 mmHg 60%
10:00 +27°C° 0 mm 2 mps 659 mmHg 56%
11:00 +27°C° 0.2 mm 2 mps 659 mmHg 57%
12:00 +28°C° 0.2 mm 2 mps 658 mmHg 57%
13:00 +28°C° 0.2 mm 2 mps 658 mmHg 57%
14:00 +27°C° 0.5 mm 2 mps 658 mmHg 60%
15:00 +27°C° 0.5 mm 2 mps 657 mmHg 62%
16:00 +26°C° 0.5 mm 1 mps 657 mmHg 65%
17:00 +25°C° 0.4 mm 2 mps 657 mmHg 69%
18:00 +24°C° 0.4 mm 2 mps 657 mmHg 73%
19:00 +23°C° 0.4 mm 2 mps 657 mmHg 77%
20:00 +21°C° 0.2 mm 2 mps 657 mmHg 78%
21:00 +21°C° 0.2 mm 2 mps 658 mmHg 79%
22:00 +20°C° 0.2 mm 2 mps 658 mmHg 80%
23:00 +20°C° 0.1 mm 2 mps 658 mmHg 79%

Tomorrow, 24 July, Saturday

Time Temperature Precipitation Wind Pressure Humidity
00:00 +20°C° 0.1 mm 2 mps 657 mmHg 79%
01:00 +20°C° 0.1 mm 2 mps 657 mmHg 78%
02:00 +19°C° 0.1 mm 2 mps 657 mmHg 79%
03:00 +19°C° 0.1 mm 2 mps 657 mmHg 80%
04:00 +20°C° 0.1 mm 1 mps 657 mmHg 81%
05:00 +21°C° 0 mm 1 mps 657 mmHg 79%
06:00 +21°C° 0 mm 1 mps 657 mmHg 77%
07:00 +22°C° 0 mm 1 mps 658 mmHg 76%
08:00 +23°C° 0 mm 1 mps 658 mmHg 71%
09:00 +25°C° 0 mm 2 mps 658 mmHg 66%
10:00 +26°C° 0 mm 2 mps 659 mmHg 61%
11:00 +26°C° 0.5 mm 2 mps 658 mmHg 63%
12:00 +26°C° 0.5 mm 2 mps 658 mmHg 65%
13:00 +26°C° 0.5 mm 2 mps 657 mmHg 67%
14:00 +26°C° 0.9 mm 2 mps 657 mmHg 70%
15:00 +25°C° 0.9 mm 1 mps 657 mmHg 73%
16:00 +25°C° 0.9 mm 1 mps 656 mmHg 76%
17:00 +24°C° 1.2 mm 2 mps 656 mmHg 79%
18:00 +23°C° 1.2 mm 2 mps 657 mmHg 82%
19:00 +21°C° 1.2 mm 2 mps 657 mmHg 84%
20:00 +21°C° 0.4 mm 2 mps 657 mmHg 84%
21:00 +20°C° 0.4 mm 2 mps 657 mmHg 84%
22:00 +20°C° 0.4 mm 2 mps 658 mmHg 83%
23:00 +20°C° 0.3 mm 2 mps 657 mmHg 84%

Day after tomorrow, 25 July, Sunday

Time Temperature Precipitation Wind Pressure Humidity
00:00 +20°C° 0.3 mm 2 mps 657 mmHg 85%
01:00 +19°C° 0.3 mm 2 mps 656 mmHg 86%
02:00 +19°C° 0 mm 2 mps 656 mmHg 86%
03:00 +20°C° 0 mm 1 mps 656 mmHg 87%
04:00 +19°C° 0 mm 1 mps 656 mmHg 87%
05:00 +20°C° 0 mm 1 mps 657 mmHg 84%
06:00 +21°C° 0 mm 1 mps 657 mmHg 81%
07:00 +21°C° 0 mm 1 mps 657 mmHg 77%
08:00 +23°C° 0.1 mm 1 mps 658 mmHg 73%
09:00 +24°C° 0.1 mm 2 mps 658 mmHg 68%
10:00 +26°C° 0.1 mm 2 mps 659 mmHg 64%
11:00 +25°C° 0.7 mm 2 mps 658 mmHg 67%
12:00 +25°C° 0.7 mm 2 mps 658 mmHg 70%
13:00 +25°C° 0.7 mm 2 mps 658 mmHg 73%
14:00 +24°C° 2 mm 2 mps 657 mmHg 77%
15:00 +23°C° 2 mm 2 mps 656 mmHg 81%
16:00 +21°C° 2 mm 2 mps 656 mmHg 86%
17:00 +21°C° 0.9 mm 2 mps 656 mmHg 86%
18:00 +20°C° 0.9 mm 2 mps 656 mmHg 87%
19:00 +20°C° 0.9 mm 2 mps 656 mmHg 87%
20:00 +20°C° 0.3 mm 2 mps 657 mmHg 87%
21:00 +19°C° 0.3 mm 2 mps 657 mmHg 86%
22:00 +19°C° 0.3 mm 2 mps 658 mmHg 85%
23:00 +19°C° 0.1 mm 2 mps 657 mmHg 85%

26 July, Monday

Time Temperature Precipitation Wind Pressure Humidity
00:00 +19°C° 0.1 mm 2 mps 657 mmHg 85%
01:00 +18°C° 0.1 mm 2 mps 657 mmHg 84%
02:00 +18°C° 0.1 mm 2 mps 657 mmHg 84%
03:00 +18°C° 0.1 mm 2 mps 657 mmHg 85%
04:00 +18°C° 0.1 mm 2 mps 657 mmHg 85%
05:00 +20°C° 0.1 mm 1 mps 657 mmHg 83%
06:00 +20°C° 0.1 mm 1 mps 657 mmHg 81%
07:00 +19°C° 0.1 mm 0 mps 658 mmHg 79%
08:00 +22°C° 0.1 mm 1 mps 658 mmHg 77%
09:00 +23°C° 0.1 mm 1 mps 659 mmHg 74%
10:00 +24°C° 0.1 mm 2 mps 659 mmHg 71%
11:00 +25°C° 0.5 mm 2 mps 659 mmHg 72%
12:00 +25°C° 0.5 mm 2 mps 658 mmHg 72%
13:00 +25°C° 0.5 mm 2 mps 658 mmHg 72%
14:00 +25°C° 0.9 mm 2 mps 657 mmHg 74%
15:00 +25°C° 0.9 mm 1 mps 657 mmHg 77%
16:00 +24°C° 0.9 mm 1 mps 657 mmHg 79%
17:00 +23°C° 1.2 mm 1 mps 657 mmHg 83%
18:00 +22°C° 1.2 mm 1 mps 657 mmHg 87%
19:00 +20°C° 1.2 mm 2 mps 657 mmHg 91%
20:00 +20°C° 1.4 mm 2 mps 658 mmHg 90%
21:00 +20°C° 1.4 mm 1 mps 658 mmHg 90%
22:00 +20°C° 1.4 mm 1 mps 658 mmHg 89%
23:00 +20°C° 0.3 mm 1 mps 658 mmHg 89%

27 July, Tuesday

Time Temperature Precipitation Wind Pressure Humidity
00:00 +20°C° 0.3 mm 1 mps 658 mmHg 88%
01:00 +20°C° 0.3 mm 1 mps 657 mmHg 88%
02:00 +20°C° 0.5 mm 1 mps 657 mmHg 89%
03:00 +20°C° 0.5 mm 1 mps 657 mmHg 90%
04:00 +20°C° 0.5 mm 1 mps 657 mmHg 92%
05:00 +20°C° 0.6 mm 1 mps 657 mmHg 92%
06:00 +20°C° 0.6 mm 1 mps 657 mmHg 92%
07:00 +20°C° 0.6 mm 1 mps 658 mmHg 93%
08:00 +20°C° 0.6 mm 1 mps 658 mmHg 93%
09:00 +20°C° 0.6 mm 1 mps 658 mmHg 93%
10:00 +20°C° 0.6 mm 1 mps 659 mmHg 93%
11:00 +20°C° 0.9 mm 1 mps 658 mmHg 93%
12:00 +21°C° 0.9 mm 1 mps 658 mmHg 93%
13:00 +21°C° 0.9 mm 1 mps 658 mmHg 92%
14:00 +21°C° 0.8 mm 1 mps 658 mmHg 93%
15:00 +21°C° 0.8 mm 1 mps 657 mmHg 93%
16:00 +20°C° 0.8 mm 1 mps 657 mmHg 94%
17:00 +20°C° 1 mm 1 mps 657 mmHg 93%
18:00 +20°C° 1 mm 1 mps 657 mmHg 93%
19:00 +20°C° 1 mm 1 mps 658 mmHg 93%
20:00 +20°C° 0.3 mm 1 mps 658 mmHg 92%
21:00 +20°C° 0.3 mm 1 mps 658 mmHg 91%
22:00 +20°C° 0.3 mm 1 mps 658 mmHg 90%
23:00 +20°C° 0.4 mm 1 mps 658 mmHg 91%

28 July, Wednesday

Time Temperature Precipitation Wind Pressure Humidity
00:00 +18°C° 0.4 mm 0 mps 658 mmHg 91%
01:00 +17°C° 0.4 mm 0 mps 657 mmHg 91%
02:00 +17°C° 0.3 mm 0 mps 657 mmHg 92%
03:00 +17°C° 0.3 mm 0 mps 657 mmHg 93%
04:00 +17°C° 0.3 mm 0 mps 657 mmHg 94%
05:00 +17°C° 0.1 mm 0 mps 658 mmHg 93%
06:00 +18°C° 0.1 mm 0 mps 658 mmHg 91%
07:00 +18°C° 0.1 mm 0 mps 658 mmHg 90%
08:00 +21°C° 0.2 mm 1 mps 658 mmHg 88%
09:00 +22°C° 0.2 mm 1 mps 659 mmHg 85%
10:00 +23°C° 0.2 mm 2 mps 659 mmHg 82%
11:00 +23°C° 1.4 mm 2 mps 659 mmHg 82%
12:00 +23°C° 1.4 mm 1 mps 658 mmHg 82%
13:00 +23°C° 1.4 mm 1 mps 658 mmHg 81%
14:00 +22°C° 1.9 mm 1 mps 657 mmHg 83%
15:00 +22°C° 1.9 mm 1 mps 657 mmHg 85%
16:00 +21°C° 1.9 mm 1 mps 657 mmHg 87%
17:00 +21°C° 0.4 mm 1 mps 657 mmHg 87%
18:00 +20°C° 0.4 mm 1 mps 657 mmHg 87%
19:00 +20°C° 0.4 mm 1 mps 657 mmHg 87%
20:00 +20°C° 0.6 mm 1 mps 657 mmHg 87%
21:00 +20°C° 0.6 mm 1 mps 658 mmHg 87%
22:00 +20°C° 0.6 mm 1 mps 658 mmHg 87%
23:00 +20°C° 0.4 mm 1 mps 658 mmHg 87%
Show more